Regional Weather Roundup
Issued by NWS Upton, NY

Current Version | Previous Version | Text Only | Print | Product List | Glossary Off
Versions: 1 2 3 4 5 6 7 8 9 10 11 12 13 14 15 16 17 18 19 20 21 22 23 24 25 26 27

000
ASUS41 KOKX 280104
RWROKX

REGIONAL WEATHER ROUNDUP
NATIONAL WEATHER SERVICE NEW YORK NY
900 PM EDT MON JUN 27 2016

NOTE: "FAIR" INDICATES FEW OR NO CLOUDS BELOW 12,000 FEET WITH NO
SIGNIFICANT WEATHER AND/OR OBSTRUCTIONS TO VISIBILITY.

NYZ071-072-176-178-NJZ106-104-280200-
NEW YORK CITY METRO AREA


CITY           SKY/WX    TMP DP  RH WIND       PRES   REMARKS
CENTRAL PARK   CLOUDY    73  66  78 VRB5      30.02S
LAGUARDIA APRT CLOUDY    74  66  76 S14G23    29.99S
KENNEDY INTL   LGT RAIN  73  63  70 S20G31    30.01S
NEWARK/LIBERTY LGT RAIN  76  68  76 S9        29.99R
BRNX BOT. GARD   N/A     72  64  78 S7        30.00F
TETERBORO      DRIZZLE   76  67  73 S8        29.98S
$$

NYZ177-179-078>081-280200-
LONG ISLAND NEW YORK

CITY           SKY/WX    TMP DP  RH WIND       PRES   REMARKS
FARMINGDALE    MOCLDY    73  65  75 S14       30.02S
ISLIP          CLOUDY    72  65  78 S12       30.02S
SHIRLEY        MOCLDY    71  64  78 S13       30.04S
RIVERHEAD      NOT AVBL
WESTHAMPTON    CLOUDY    70  65  84 S8        30.05S
SOUTHAMPTON      N/A     70  66  88 S10       30.00S
BRIDGEHAMPTON  NOT AVBL
EAST HAMPTON   FAIR      68  64  88 S8        30.04S
MONTAUK POINT    N/A     69  65  86 S8        30.05S
$$

NYZ052-065-067-280200-
HUDSON VALLEY

CITY           SKY/WX    TMP DP  RH WIND       PRES   REMARKS
WHITE PLAINS   LGT RAIN  69  67  93 S7        30.01S
NEWBURGH       CLOUDY    70  68  94 W6        30.01S
MONTGOMERY     CLOUDY    70  68  93 CALM      30.00S
POUGHKEEPSIE   LGT RAIN  72  68  87 SE6       29.98S
ALBANY         MOCLDY    72  64  76 S13G21    29.95F
$$

NJZ001-105-106-008-010-013-015-019>022-104-280200-
NEW JERSEY

CITY           SKY/WX    TMP DP  RH WIND       PRES   REMARKS
NEWARK/LIBERTY LGT RAIN  76  68  76 S9        29.99R
TETERBORO      DRIZZLE   76  67  73 S8        29.98S
CALDWELL       RAIN      72  68  87 NW3       30.00R FOG
MORRISTOWN     LGT RAIN  73  66  78 CALM      30.00R
SOMERVILLE     LGT RAIN  72  69  90 CALM      29.98S FOG
SUSSEX         CLOUDY    69  67  93 CALM      30.00F
ANDOVER          N/A     68  66  93 CALM      30.01F
TRENTON        LGT RAIN  73  67  81 SW6       29.99R
MILLVILLE      CLOUDY    74  68  81 S7        30.00S
ATLANTIC CITY  PTCLDY    73  66  78 S9        30.01S
WRIGHTSTOWN    CLOUDY    75  67  75 S7        29.98R
TOMS RIVER     CLOUDY    73  67  81 S10       30.02R
BELMAR         CLOUDY    72  67  84 VRB7      30.02S
$$

PAZ047>061-062-071-280200-
EASTERN PENNSYLVANIA

CITY           SKY/WX    TMP DP  RH WIND       PRES   REMARKS
PHILADELPHIA   LGT RAIN  74  68  81 S7        29.99S
ALLENTOWN      CLOUDY    73  68  84 S3        29.99S
SCRANTON       CLOUDY    73  67  81 VRB6      29.98S
$$

CTZ002-004>006-009-010-012-RIZ004-006-007-MAZ004-011-015-280200-
SOUTHERN NEW ENGLAND
 IN CT

CITY           SKY/WX    TMP DP  RH WIND       PRES   REMARKS
BRADLEY INTL   MOCLDY    72  64  76 S12       29.99S
HARTFORD       CLOUDY    75  64  68 S10       30.01R
DANBURY        LGT RAIN  69  66  90 S8        30.02S
WTRBRY/OXFORD  LGT RAIN  68  63  83 S9        30.04S FOG
BRIDGEPORT     LGT RAIN  73  67  81 SW8       30.01F
MERIDEN        CLOUDY    74  63  68 S10       30.01S
NEW HAVEN      LGT RAIN  71  66  84 S5        30.02F
CHESTER        CLOUDY    70  64  83 S8        30.04S
GROTON         MOCLDY    67  66  97 CALM      30.04R
WILLIMANTIC    CLOUDY    73  62  68 S10       30.03R

 IN RI

CITY           SKY/WX    TMP DP  RH WIND       PRES   REMARKS
PROVIDENCE     MOCLDY    71  62  73 S10       30.05R
BLOCK ISLAND   CLOUDY    68  64  87 S10       30.06S
WESTERLY       CLOUDY    69  62  78 S10       30.05S

 IN MA

CITY           SKY/WX    TMP DP  RH WIND       PRES   REMARKS
BOSTON         CLOUDY    73  61  65 S13G22    30.01R
WORCESTER      CLOUDY    70  60  70 S16G23    30.03S
WESTFIELD      CLOUDY    71  65  81 S10       30.00R
PROVINCETOWN   CLEAR     67  63  87 S13       30.06R
NANTUCKET      CLEAR     65  63  93 S9        30.08S
$$

ANZ330-335-338-340-345-350-353-355-280200-
COASTAL MARINE OBSERVATIONS


STATION/POSITION TIME  SKY/WX   TEMP    WIND        PRES    VSBY  WAVE
                                AIR SEA DIR/SP/G                  HT/PER
                 (UTC)          (F)     (DEG/KT/KT) (MB)    (MI)  (FT/S)
NY HARB ENTRANCE 2350            71 70  180/ 17/ 21 1015.5          4/ 4
20S FIRE ISLAND  2350            70 69  180/ 14/ 17 1016.5          4/ 8
GREAT SOUTH BAY  0000            72 76  200/ 16/ 21   N/A
23 SSW MONTAUK P 2350            69 68  190/ 14/ 16 1017.8          3/ 8
15 E BARNEGAT LI 0022               70                N/A           4/ 4
HUDSON CANYON    2350            68 67              1017.9          2/ 8
KINGS POINT      0000               69              1015.4
EXECUTION ROCKS  NOT AVBL
CENTRAL LI SOUND 0030            71     180/ 14/ 17   N/A           2/ 3
EASTERN LI SOUND 0000            65 61  180/  8/  8   N/A
ROBBINS REEF     0000                               1014.7
$$


>>>>>>>>>>>>>>>>>>>>>>>>>>>> KEY <<<<<<<<<<<<<<<<<<<<<<<<<<<
>                                                          <
>     SKY/WX - SKY CONDITION/PRESENT WEATHER               <
>     TMP    - TEMPERATURE IN FAHRENHEIT                   <
>     DP     - DEWPOINT IN FAHRENHEIT                      <
>     RH     - RELATIVE HUMIDITY IN PERCENT                <
>     WIND   - DIRECTION AND SPEED IN MPH                  <
>     PRES   - MEAN SEA LEVEL PRESSURE IN INCHES OF HG     <
>     WCI    - WIND CHILL INDEX                            <
>     VSB    - VISIBILITY IN MILES                         <
>     HX     - HEAT INDEX                                  <
>     TC     - TEMPERATURE IN CELSIUS                      <
>     VRB    - VARIABLE WIND DIRECTION                     <
>                                                          <
>>>>>>>>>>>>>>>>>>>>>>>>>>>> KEY <<<<<<<<<<<<<<<<<<<<<<<<<<<






USA.gov is the U.S. government's official web portal to all federal, state and local government web resources and services.